Location: Miles
(41.4492°N, 81.6087°W)
Time: 18:46:57
(UTC+00:00)

Transit 2A - Pass Details

Date: 18 September 2024
Orbit: 590 x 960 km, 66.7° (Epoch: 05 October)

Event Time Altitude Azimuth Distance (km) Brightness Sun altitude
Rises 09:54:46 0° 312° (NW) 3,588 9.2 -14.8°
Enters shadow 09:55:33 - 309° (NW) 3,356 9.0 -14.6°
Reaches altitude 10° 09:58:40 10° 289° (WNW) 2,583 - -14.1°
Maximum altitude 10:01:35 14° 260° (W) 2,250 - -13.6°
Drops below altitude 10° 10:04:25 10° 230° (SW) 2,465 - -13.0°
Sets 10:07:59 0° 205° (SSW) 3,310 - -12.4°
